Wind_Speed
30 29 29 29 29 30 31 32 33 34 35 35 37 38 39 41 42 44 46 47 48 49 50 52 53 55 56 58 60 60 60 59 59 59 59 59 60 62 64 65 67 69 71
32 32 31 32 32 32 33 35 36 37 38 39 41 41 43 44 45 47 49 51 51 52 54 55 56 58 59 61 62 62 60 60 60 60 61 61 62 61 63 65 67 69 71
32 33 34 34 35 35 37 39 40 41 42 43 45 45 46 47 48 51 53 54 55 56 57 58 59 60 62 63 64 63 61 61 61 61 62 63 64 65 64 65 67 70 71
33 34 35 36 37 39 41 43 44 45 46 48 48 49 50 51 52 54 55 57 58 59 59 60 61 62 63 64 64 63 61 61 62 62 63 64 65 65 65 66 68 69 71
33 34 36 38 40 42 44 46 48 49 50 51 52 53 53 54 56 57 58 59 60 61 62 63 63 63 64 64 64 62 61 62 62 63 63 64 65 66 66 66 67 69 71
32 34 36 39 41 44 46 48 50 51 52 53 54 55 56 57 58 59 60 61 62 63 63 64 65 65 65 65 64 63 62 62 62 63 64 64 65 66 67 67 67 68 71
33 34 36 38 40 43 45 47 49 51 52 54 55 56 57 58 59 60 61 62 62 62 63 64 65 65 65 65 64 64 63 62 62 63 63 64 65 67 68 69 68 69 70
34 35 36 38 40 42 44 46 48 50 52 53 54 56 57 58 59 60 62 62 62 62 63 64 65 66 66 65 65 63 63 62 62 63 63 64 66 67 69 70 70 70 70
37 38 39 40 41 42 43 45 47 49 50 52 53 54 56 57 58 60 60 61 61 62 64 64 65 66 66 65 64 63 62 62 62 62 63 65 66 68 70 70 71 71 71
40 41 41 42 42 43 44 45 46 48 49 51 53 54 55 56 58 59 60 60 62 63 64 65 65 66 65 64 64 62 61 61 61 62 64 65 68 69 69 70 71 72 73
43 43 43 43 43 44 45 46 47 48 49 51 52 52 54 55 57 58 60 62 63 63 64 65 65 65 64 64 63 61 60 60 60 62 64 66 68 68 69 70 70 71 73
47 47 46 46 46 46 47 48 48 49 49 50 51 52 53 55 57 59 62 63 63 64 64 64 64 64 63 63 61 60 59 59 60 62 64 66 67 68 68 69 69 70 72
51 51 50 50 49 49 49 49 49 49 49 50 50 51 53 56 58 60 62 63 63 63 63 63 62 62 61 60 59 58 57 58 60 62 64 65 66 66 67 68 68 69 71
53 53 52 52 51 51 50 50 50 50 50 51 52 53 55 57 59 60 61 62 62 62 62 61 60 59 58 58 57 56 57 58 59 62 63 64 65 65 66 66 67 68 69
52 52 52 51 51 50 50 50 51 51 52 52 53 55 56 58 59 60 60 60 60 59 58 57 56 56 56 55 55 55 56 57 59 61 62 63 63 64 65 65 65 67 68
49 49 49 50 50 51 51 51 52 53 53 54 55 56 57 57 57 57 56 55 55 54 53 53 54 54 53 53 53 54 55 57 58 60 61 62 62 63 64 64 64 65 66
46 47 48 49 50 51 52 52 53 53 54 55 55 55 55 54 53 52 51 51 51 49 49 50 52 51 51 51 52 53 55 56 57 59 60 60 61 62 62 62 62 62 62
47 48 49 50 51 52 53 53 52 52 52 52 52 51 50 49 49 48 48 48 48 48 49 50 50 50 50 51 53 54 55 56 57 58 59 59 60 60 61 60 59 59 59
51 51 52 52 53 53 53 52 51 51 51 50 49 49 48 47 47 47 47 47 47 48 48 49 50 50 52 53 53 55 55 56 57 57 58 58 59 59 60 59 58 57 56
53 53 53 54 54 54 53 52 51 51 51 50 50 49 48 48 48 48 48 48 48 48 49 50 50 51 52 54 55 55 55 55 56 56 57 57 58 58 58 57 56 55 54
56 56 56 56 56 56 55 54 52 52 51 50 50 49 49 49 49 49 50 50 50 50 50 51 52 53 54 55 55 55 55 55 55 55 55 56 57 56 56 55 54 53 52
60 60 59 58 58 57 56 54 53 52 51 50 50 50 50 51 51 51 51 51 51 51 52 53 54 54 55 55 55 55 54 54 53 54 54 55 55 54 53 52 51 50 49
64 63 61 60 58 58 57 55 53 52 51 51 51 52 52 52 52 53 53 53 53 54 54 55 55 56 56 55 55 54 53 52 52 52 53 53 53 52 50 49 48 48 47
66 64 62 60 58 57 56 56 54 53 52 53 53 53 53 53 54 54 54 54 55 55 55 55 56 56 55 55 54 52 51 51 50 50 51 51 50 49 48 47 46 45 44
65 63 61 59 57 57 56 55 55 54 54 54 53 53 53 54 54 54 54 55 55 55 55 56 55 55 54 53 52 50 49 49 48 48 48 48 47 47 45 44 43 43 42
63 61 59 58 57 56 56 56 56 55 54 53 53 53 53 53 53 53 53 54 54 54 54 54 54 54 53 52 50 49 47 47 46 45 46 45 45 44 42 41 41 41 40
Wind_Direction
271 272 271 271 272 273 274 275 277 279 283 286 287 290 293 296 298 299 300 302 303 304 306 306 307 308 308 309 309 309 307 305 303 302 301 300 299 298 297 296 296 296 297
273 272 270 269 270 271 272 273 275 277 281 283 286 289 291 294 296 298 299 301 302 303 304 305 305 306 307 307 308 308 306 305 303 302 300 299 297 296 296 297 297 298 298
277 274 272 270 270 270 271 273 275 278 280 282 285 288 290 293 294 295 298 299 300 301 302 303 303 304 305 306 306 306 305 304 303 302 301 299 298 297 297 297 298 300 300
281 278 275 273 272 272 274 276 277 279 281 283 286 288 290 292 293 294 297 298 299 300 301 301 301 303 304 304 305 305 304 304 303 302 301 300 299 298 298 299 299 300 302
287 284 281 278 276 275 276 277 278 281 283 285 287 289 291 292 293 295 296 297 297 298 299 299 300 301 302 303 304 304 304 304 303 302 301 300 300 300 300 301 302 302 303
292 290 287 285 283 282 282 282 284 285 287 289 290 291 291 292 293 294 295 295 296 297 297 297 298 300 301 302 303 304 304 304 303 303 302 302 302 302 302 303 303 304 305
296 294 292 289 288 287 287 287 288 288 288 289 290 290 291 291 292 292 293 293 295 295 296 296 298 300 301 302 303 304 304 303 303 303 303 303 303 303 304 304 304 305 306
298 297 296 294 293 291 290 290 290 289 289 289 289 290 290 291 291 292 292 294 295 295 295 297 298 300 301 302 303 303 303 303 303 303 303 304 304 304 305 306 306 306 308
301 300 299 297 295 293 292 291 291 290 289 289 289 289 289 290 291 291 293 294 294 294 296 297 299 300 301 302 302 303 302 302 303 303 303 304 305 305 306 307 307 308 309
299 298 298 297 296 294 293 293 292 290 290 289 289 289 289 289 290 291 293 293 294 295 297 298 299 299 300 301 302 302 302 302 303 302 303 304 305 306 307 307 308 309 311
299 298 297 297 296 294 293 293 291 290 290 290 289 289 289 290 291 292 293 294 296 297 298 299 299 300 300 300 300 301 301 301 302 302 303 304 305 307 307 308 309 310 311
302 302 301 300 299 297 296 295 294 293 292 291 291 290 290 291 292 293 294 295 296 297 298 299 299 299 299 299 299 299 299 300 301 302 304 305 306 307 307 308 310 311 312
304 303 303 302 301 300 299 297 296 295 294 294 293 292 292 292 293 294 294 295 295 296 297 297 298 298 298 298 298 297 297 298 300 302 303 304 306 307 308 309 310 312 313
303 303 302 302 301 301 300 298 297 296 295 295 294 293 292 292 293 294 295 295 295 296 296 296 297 297 297 297 297 297 297 298 299 302 303 304 306 307 308 310 311 313 314
304 303 303 302 302 301 299 298 297 296 295 295 294 293 293 293 294 294 294 295 295 295 295 295 295 295 296 296 296 297 298 298 299 301 303 305 306 307 309 310 312 313 314
307 306 305 304 303 301 300 298 297 296 295 294 294 293 293 294 293 294 294 294 294 294 295 295 295 295 296 295 294 296 297 298 300 301 303 305 307 308 309 311 313 314 316
311 309 307 305 304 302 300 299 298 297 295 295 294 293 294 294 294 294 294 294 294 294 295 295 296 296 295 294 294 296 297 299 299 301 303 305 307 308 309 311 313 315 317
312 311 310 308 306 304 302 301 300 299 298 297 295 294 295 295 295 295 295 295 294 294 295 295 296 296 295 295 295 296 297 298 299 300 302 305 307 308 310 312 314 316 317
312 311 310 309 307 305 303 302 300 299 298 298 297 295 295 295 296 296 296 295 295 295 295 295 296 296 296 296 296 296 297 297 299 300 302 305 307 308 310 312 315 317 318
309 309 309 308 307 305 304 302 300 299 299 298 296 295 295 295 295 296 296 295 295 296 296 296 296 296 296 296 297 297 297 298 299 300 303 305 307 308 310 313 316 318 319
307 307 306 306 306 304 303 301 299 298 298 297 296 295 295 295 295 295 295 296 296 296 296 296 296 296 297 297 297 297 297 298 299 300 302 305 307 309 311 314 316 319 320
305 305 305 304 303 302 301 299 297 297 297 296 296 295 295 295 295 295 295 295 296 296 296 297 297 297 297 297 297 297 298 298 299 300 302 304 306 309 312 314 317 319 321
304 304 304 303 301 300 299 297 296 296 295 295 295 295 295 295 295 295 295 295 296 296 297 297 297 297 297 298 298 297 297 297 298 300 302 304 306 309 312 315 318 320 321
303 303 303 301 300 298 297 296 296 295 294 294 295 296 296 296 296 297 296 296 296 297 297 298 298 298 298 299 298 297 297 297 298 300 302 304 306 309 313 316 319 321 322
303 302 301 300 299 298 296 295 295 295 295 295 296 296 296 297 297 298 298 298 298 299 299 299 299 300 299 298 298 297 296 296 297 299 301 303 306 310 313 317 320 322 324
302 301 301 300 299 297 296 296 296 297 296 296 297 297 297 298 298 299 299 299 300 300 301 301 301 301 300 299 297 296 296 296 296 298 301 303 306 310 314 318 321 323 325
Height
5827 5826 5825 5824 5823 5821 5819 5817 5815 5813 5810 5808 5804 5801 5798 5794 5790 5785 5780 5776 5772 5767 5761 5756 5750 5744 5738 5732 5725 5719 5712 5705 5699 5693 5687 5681 5674 5666 5659 5652 5645 5639 5632
5820 5819 5817 5816 5815 5813 5811 5809 5806 5804 5801 5798 5795 5792 5788 5785 5780 5775 5770 5765 5761 5756 5750 5744 5738 5732 5726 5719 5712 5706 5698 5692 5685 5678 5671 5665 5660 5654 5645 5636 5628 5620 5613
5812 5811 5810 5808 5806 5804 5802 5799 5797 5794 5791 5788 5785 5782 5778 5774 5770 5764 5759 5754 5749 5744 5738 5732 5726 5719 5713 5706 5699 5692 5685 5678 5671 5663 5656 5649 5643 5636 5630 5622 5611 5602 5594
5805 5803 5801 5800 5798 5795 5792 5790 5787 5784 5781 5777 5774 5771 5767 5763 5759 5753 5749 5743 5737 5731 5726 5719 5712 5706 5700 5693 5686 5678 5671 5663 5656 5649 5641 5633 5626 5619 5613 5606 5596 5586 5575
5797 5795 5793 5791 5789 5786 5783 5780 5777 5774 5770 5767 5764 5760 5756 5752 5747 5742 5736 5730 5724 5718 5712 5705 5699 5692 5686 5679 5671 5664 5657 5649 5641 5633 5625 5617 5609 5601 5595 5589 5579 5568 5557
5790 5788 5785 5783 5780 5777 5774 5771 5768 5764 5761 5757 5753 5749 5744 5739 5734 5729 5724 5717 5711 5705 5698 5691 5684 5678 5671 5664 5656 5649 5642 5634 5625 5617 5609 5601 5593 5584 5576 5570 5562 5552 5540
5783 5780 5777 5774 5771 5768 5764 5761 5758 5754 5750 5745 5741 5736 5731 5726 5721 5715 5709 5703 5697 5691 5683 5676 5670 5663 5656 5649 5641 5634 5626 5618 5610 5602 5593 5584 5576 5567 5558 5550 5542 5534 5524
5776 5772 5769 5765 5762 5758 5754 5750 5746 5742 5737 5733 5728 5723 5718 5712 5707 5701 5695 5689 5683 5676 5669 5662 5655 5648 5641 5633 5626 5618 5610 5602 5594 5586 5577 5568 5559 5550 5541 5531 5522 5515 5506
5766 5763 5759 5755 5751 5748 5743 5739 5735 5730 5725 5720 5715 5710 5704 5698 5693 5686 5680 5674 5667 5661 5654 5647 5640 5633 5626 5618 5610 5603 5595 5587 5578 5570 5561 5552 5543 5533 5524 5513 5503 5494 5486
5757 5753 5749 5745 5741 5736 5732 5727 5723 5718 5712 5707 5701 5696 5690 5684 5678 5671 5665 5658 5652 5645 5639 5632 5625 5618 5610 5602 5595 5587 5579 5571 5563 5554 5545 5536 5527 5517 5507 5496 5485 5474 5464
5747 5743 5739 5735 5730 5725 5720 5715 5710 5705 5699 5693 5688 5682 5676 5670 5663 5657 5650 5643 5637 5630 5624 5617 5609 5602 5595 5587 5579 5572 5564 5556 5548 5539 5530 5521 5510 5501 5490 5479 5468 5457 5445
5733 5729 5725 5721 5717 5712 5707 5702 5696 5690 5685 5679 5673 5668 5661 5655 5648 5642 5635 5628 5622 5615 5608 5601 5594 5586 5579 5571 5564 5556 5549 5541 5533 5524 5515 5505 5495 5485 5474 5463 5452 5441 5428
5719 5715 5711 5707 5702 5697 5692 5687 5681 5675 5670 5664 5658 5653 5646 5640 5633 5627 5620 5613 5606 5599 5592 5585 5578 5571 5563 5556 5549 5541 5534 5526 5518 5509 5500 5490 5480 5470 5459 5448 5437 5425 5413
5706 5702 5697 5692 5687 5682 5676 5671 5666 5660 5655 5649 5643 5637 5631 5624 5618 5611 5604 5597 5590 5583 5576 5569 5562 5555 5548 5541 5534 5526 5519 5512 5504 5495 5486 5476 5466 5456 5444 5433 5422 5410 5398
5693 5688 5682 5677 5672 5666 5661 5656 5650 5644 5639 5633 5627 5621 5615 5608 5601 5595 5588 5581 5574 5567 5560 5554 5547 5540 5533 5526 5519 5512 5505 5497 5489 5481 5471 5461 5452 5441 5430 5420 5408 5396 5384
5680 5674 5668 5663 5657 5651 5646 5641 5635 5629 5623 5617 5611 5605 5598 5592 5585 5578 5571 5565 5558 5551 5545 5539 5532 5525 5519 5512 5504 5497 5490 5483 5475 5466 5457 5448 5438 5428 5417 5406 5394 5382 5370
5667 5661 5655 5649 5643 5637 5631 5625 5619 5614 5607 5601 5595 5588 5582 5575 5569 5562 5556 5549 5543 5537 5531 5524 5517 5511 5505 5497 5490 5483 5476 5469 5461 5452 5443 5435 5425 5414 5404 5393 5382 5370 5357
5655 5649 5643 5636 5630 5623 5616 5610 5604 5598 5592 5586 5579 5573 5566 5560 5554 5547 5541 5535 5529 5523 5517 5510 5504 5497 5491 5483 5477 5470 5463 5455 5447 5439 5430 5422 5412 5402 5392 5382 5371 5359 5347
5643 5636 5630 5623 5616 5609 5603 5596 5590 5583 5577 5571 5565 5558 5552 5546 5540 5534 5528 5521 5515 5509 5503 5496 5490 5484 5477 5470 5463 5455 5449 5442 5434 5426 5417 5409 5400 5390 5380 5371 5361 5350 5338
5632 5624 5617 5610 5603 5596 5589 5582 5576 5569 5563 5557 5551 5544 5538 5533 5527 5521 5514 5508 5502 5496 5489 5483 5477 5470 5464 5456 5449 5442 5435 5428 5421 5413 5405 5397 5388 5378 5367 5358 5349 5339 5328
5619 5612 5604 5597 5589 5582 5576 5569 5562 5556 5550 5544 5537 5531 5525 5519 5513 5507 5501 5494 5488 5482 5476 5470 5463 5456 5449 5442 5435 5428 5422 5414 5407 5400 5392 5384 5375 5366 5356 5347 5338 5328 5318
5605 5597 5590 5583 5575 5568 5562 5555 5549 5543 5537 5530 5524 5517 5511 5505 5499 5493 5487 5480 5474 5468 5461 5455 5448 5442 5435 5428 5421 5414 5408 5401 5394 5387 5380 5372 5363 5354 5345 5336 5327 5318 5308
5590 5582 5575 5569 5561 5553 5546 5540 5534 5528 5523 5516 5509 5503 5497 5490 5484 5478 5472 5466 5459 5453 5447 5440 5434 5427 5420 5413 5406 5400 5393 5387 5381 5374 5367 5360 5352 5343 5335 5326 5318 5309 5300
5574 5567 5560 5553 5546 5538 5530 5524 5519 5513 5507 5501 5495 5489 5483 5476 5470 5463 5457 5450 5444 5438 5432 5425 5419 5412 5405 5399 5392 5386 5380 5374 5368 5362 5356 5349 5341 5333 5325 5317 5309 5300 5292
5557 5550 5544 5537 5530 5523 5516 5509 5503 5498 5492 5486 5480 5474 5468 5461 5455 5449 5442 5436 5429 5423 5417 5410 5404 5397 5391 5384 5378 5373 5367 5362 5356 5351 5345 5338 5331 5324 5316 5309 5301 5292 5284
5541 5534 5528 5521 5514 5507 5501 5494 5488 5482 5477 5471 5465 5459 5453 5447 5440 5434 5428 5421 5415 5408 5401 5395 5389 5382 5376 5370 5365 5359 5354 5349 5344 5339 5334 5328 5322 5315 5308 5300 5293 5285 5277